| time (UTC) | temp F | wind direction | speed knots | gust knots | rain 1hr in | rain 24hr in | rain mn in | humidity % | barometer mb |
| 20260902150553 | 85 | 0 | 0.0 | 2.6 | 0.00 | 0.00 | 0.00 | 72 | 1021.7 |
| 20260902150105 | 85 | 360 | 0.9 | 2.6 | 0.00 | 0.00 | 0.00 | 72 | 1021.7 |
| 20260902145554 | 85 | 360 | 0.0 | 1.7 | 0.00 | 0.00 | 0.00 | 74 | 1021.7 |
| 20260902145053 | 85 | 0 | 0.0 | 1.7 | 0.00 | 0.00 | 0.00 | 74 | 1021.8 |
| 20260902144604 | 85 | 0 | 0.0 | 0.9 | 0.00 | 0.00 | 0.00 | 74 | 1021.8 |
| 20260902144053 | 85 | 0 | 0.0 | 1.7 | 0.00 | 0.00 | 0.00 | 75 | 1021.8 |
| 20260902143552 | 85 | 0 | 0.0 | 2.6 | 0.00 | 0.00 | 0.00 | 75 | 1021.7 |
| 20260902143105 | 85 | 0 | 0.0 | 2.6 | 0.00 | 0.00 | 0.00 | 75 | 1021.8 |
| 20260902142550 | 85 | 0 | 0.9 | 2.6 | 0.00 | 0.00 | 0.00 | 76 | 1021.7 |
| 20260902142052 | 85 | 0 | 0.0 | 2.6 | 0.00 | 0.00 | 0.00 | 76 | 1021.7 |
| 20260902141604 | 85 | 0 | 0.0 | 3.5 | 0.00 | 0.00 | 0.00 | 76 | 1021.7 |
| 20260902141054 | 84 | 360 | 1.7 | 3.5 | 0.00 | 0.00 | 0.00 | 76 | 1021.8 |
| 20260902140549 | 84 | 360 | 0.0 | 1.7 | 0.00 | 0.00 | 0.00 | 78 | 1021.7 |
| 20260902140106 | 83 | 360 | 0.0 | 3.5 | 0.00 | 0.00 | 0.00 | 79 | 1021.8 |
| 20260902135550 | 82 | 0 | 0.9 | 3.5 | 0.00 | 0.00 | 0.00 | 81 | 1021.7 |
| 20260902135048 | 82 | 360 | 0.0 | 3.5 | 0.00 | 0.00 | 0.00 | 82 | 1021.8 |
| 20260902134608 | 81 | 0 | 0.0 | 2.6 | 0.00 | 0.00 | 0.00 | 83 | 1021.7 |
| 20260902134052 | 80 | 360 | 0.0 | 2.6 | 0.00 | 0.00 | 0.00 | 84 | 1021.8 |
| 20260902133551 | 80 | 360 | 0.0 | 2.6 | 0.00 | 0.00 | 0.00 | 85 | 1021.7 |
| 20260902133108 | 79 | 360 | 0.0 | 2.6 | 0.00 | 0.00 | 0.00 | 86 | 1021.8 |
| 20260902132552 | 79 | 360 | 0.0 | 0.9 | 0.00 | 0.00 | 0.00 | 87 | 1021.7 |
| 20260902132051 | 78 | 0 | 0.0 | 0.0 | 0.00 | 0.00 | 0.00 | 88 | 1021.8 |
| 20260902131607 | 77 | 0 | 0.0 | 0.0 | 0.00 | 0.00 | 0.00 | 88 | 1021.7 |
| 20260902131051 | 77 | 0 | 0.0 | 0.9 | 0.00 | 0.00 | 0.00 | 89 | 1021.8 |
| 20260902130552 | 76 | 0 | 0.0 | 0.9 | 0.00 | 0.00 | 0.00 | 89 | 1021.8 |
| 20260902130106 | 76 | 0 | 0.0 | 1.7 | 0.00 | 0.00 | 0.00 | 90 | 1021.7 |
| 20260902125552 | 75 | 0 | 0.0 | 1.7 | 0.00 | 0.00 | 0.00 | 91 | 1021.6 |
| 20260902125051 | 75 | 0 | 0.0 | 0.9 | 0.00 | 0.00 | 0.00 | 91 | 1021.6 |
| 20260902124602 | 74 | 0 | 0.0 | 0.9 | 0.00 | 0.00 | 0.00 | 91 | 1021.7 |
| 20260902124049 | 74 | 0 | 0.0 | 0.9 | 0.00 | 0.00 | 0.00 | 91 | 1021.8 |
| 20260902123551 | 74 | 0 | 0.0 | 0.9 | 0.00 | 0.00 | 0.00 | 92 | 1021.6 |
| 20260902123106 | 74 | 0 | 0.0 | 0.0 | 0.00 | 0.00 | 0.00 | 92 | 1021.6 |
| 20260902122549 | 73 | 0 | 0.0 | 0.0 | 0.00 | 0.00 | 0.00 | 92 | 1021.7 |
| 20260902122052 | 73 | 0 | 0.0 | 0.0 | 0.00 | 0.00 | 0.00 | 92 | 1021.6 |
| 20260902121605 | 73 | 0 | 0.0 | 0.0 | 0.00 | 0.00 | 0.00 | 92 | 1021.5 |
| 20260902121050 | 73 | 0 | 0.0 | 0.0 | 0.00 | 0.00 | 0.00 | 92 | 1021.5 |
| 20260902120551 | 73 | 0 | 0.0 | 0.0 | 0.00 | 0.00 | 0.00 | 92 | 1021.4 |
| 20260902120112 | 72 | 0 | 0.0 | 0.0 | 0.00 | 0.00 | 0.00 | 92 | 1021.4 |
| 20260902115548 | 72 | 0 | 0.0 | 0.0 | 0.00 | 0.00 | 0.00 | 92 | 1021.1 |
| 20260902115051 | 72 | 0 | 0.0 | 0.0 | 0.00 | 0.00 | 0.00 | 91 | 1021.0 |
| 20260902114606 | 72 | 0 | 0.0 | 0.0 | 0.00 | 0.00 | 0.00 | 91 | 1021.0 |
| 20260902114051 | 72 | 0 | 0.0 | 0.0 | 0.00 | 0.00 | 0.00 | 91 | 1020.9 |
| 20260902113548 | 72 | 0 | 0.0 | 0.0 | 0.00 | 0.00 | 0.00 | 91 | 1020.9 |
| 20260902113105 | 72 | 0 | 0.0 | 0.0 | 0.00 | 0.00 | 0.00 | 91 | 1020.8 |
| 20260902112639 | 72 | 0 | 0.0 | 0.0 | 0.00 | 0.00 | 0.00 | 91 | 1020.9 |
| 20260902112051 | 72 | 0 | 0.0 | 0.0 | 0.00 | 0.00 | 0.00 | 91 | 1020.9 |
| 20260902111609 | 72 | 0 | 0.0 | 0.0 | 0.00 | 0.00 | 0.00 | 91 | 1020.9 |
| 20260902111048 | 72 | 0 | 0.0 | 0.0 | 0.00 | 0.00 | 0.00 | 91 | 1020.7 |
| 20260902110548 | 72 | 0 | 0.0 | 0.0 | 0.00 | 0.00 | 0.00 | 91 | 1020.7 |
| 20260902110100 | 73 | 0 | 0.0 | 0.0 | 0.00 | 0.00 | 0.00 | 91 | 1020.7 |
| 20260902105552 | 73 | 0 | 0.0 | 0.0 | 0.00 | 0.00 | 0.00 | 91 | 1020.6 |
| 20260902105051 | 73 | 0 | 0.0 | 0.0 | 0.00 | 0.00 | 0.00 | 91 | 1020.5 |
| 20260902104614 | 73 | 0 | 0.0 | 0.0 | 0.00 | 0.00 | 0.00 | 91 | 1020.5 |
| 20260902104051 | 73 | 0 | 0.0 | 0.0 | 0.00 | 0.00 | 0.00 | 90 | 1020.5 |
| 20260902103551 | 73 | 0 | 0.0 | 0.0 | 0.00 | 0.00 | 0.00 | 90 | 1020.6 |
| 20260902103105 | 73 | 0 | 0.0 | 0.0 | 0.00 | 0.00 | 0.00 | 90 | 1020.5 |
| 20260902102551 | 73 | 0 | 0.0 | 0.0 | 0.00 | 0.00 | 0.00 | 90 | 1020.4 |
| 20260902102048 | 73 | 0 | 0.0 | 0.0 | 0.00 | 0.00 | 0.00 | 90 | 1020.4 |
| 20260902101603 | 73 | 0 | 0.0 | 0.0 | 0.00 | 0.00 | 0.00 | 91 | 1020.4 |
| 20260902101051 | 73 | 0 | 0.0 | 0.0 | 0.00 | 0.00 | 0.00 | 90 | 1020.3 |
| 20260902100549 | 73 | 0 | 0.0 | 0.0 | 0.00 | 0.00 | 0.00 | 90 | 1020.3 |
| 20260902095551 | 73 | 0 | 0.0 | 0.0 | 0.00 | 0.00 | 0.00 | 90 | 1020.4 |
| 20260902095048 | 73 | 0 | 0.0 | 0.0 | 0.00 | 0.00 | 0.00 | 90 | 1020.3 |
| 20260902094601 | 73 | 0 | 0.0 | 0.0 | 0.00 | 0.00 | 0.00 | 90 | 1020.2 |
| 20260902094052 | 73 | 0 | 0.0 | 0.0 | 0.00 | 0.00 | 0.00 | 89 | 1020.2 |
| 20260902093550 | 73 | 0 | 0.0 | 0.0 | 0.00 | 0.00 | 0.00 | 89 | 1020.1 |
| 20260902093106 | 73 | 0 | 0.0 | 0.0 | 0.00 | 0.00 | 0.00 | 89 | 1020.2 |
| 20260902092551 | 73 | 0 | 0.0 | 0.0 | 0.00 | 0.00 | 0.00 | 89 | 1020.1 |
| 20260902092053 | 73 | 0 | 0.0 | 0.0 | 0.00 | 0.00 | 0.00 | 89 | 1020.0 |
| 20260902091601 | 74 | 0 | 0.0 | 0.0 | 0.00 | 0.00 | 0.00 | 89 | 1020.1 |
| 20260902091053 | 74 | 0 | 0.0 | 0.0 | 0.00 | 0.00 | 0.00 | 89 | 1020.1 |
| 20260902090549 | 74 | 0 | 0.0 | 0.0 | 0.00 | 0.00 | 0.00 | 89 | 1020.1 |
| 20260902090116 | 74 | 0 | 0.0 | 0.0 | 0.00 | 0.00 | 0.00 | 89 | 1020.0 |
| 20260902085551 | 74 | 0 | 0.0 | 0.0 | 0.00 | 0.00 | 0.00 | 89 | 1019.9 |
| 20260902085048 | 74 | 0 | 0.0 | 0.0 | 0.00 | 0.00 | 0.00 | 89 | 1020.0 |
| 20260902084606 | 74 | 0 | 0.0 | 0.0 | 0.00 | 0.00 | 0.00 | 88 | 1019.9 |
| 20260902084051 | 74 | 0 | 0.0 | 0.0 | 0.00 | 0.00 | 0.00 | 88 | 1019.9 |
| 20260902083551 | 74 | 0 | 0.0 | 0.0 | 0.00 | 0.00 | 0.00 | 89 | 1019.7 |
| 20260902083106 | 74 | 0 | 0.0 | 0.0 | 0.00 | 0.00 | 0.00 | 88 | 1019.7 |
| 20260902082555 | 74 | 0 | 0.0 | 0.0 | 0.00 | 0.00 | 0.00 | 88 | 1019.8 |
| 20260902082048 | 74 | 0 | 0.0 | 0.0 | 0.00 | 0.00 | 0.00 | 88 | 1019.6 |
| 20260902081601 | 74 | 0 | 0.0 | 0.0 | 0.00 | 0.00 | 0.00 | 88 | 1019.7 |
| 20260902081055 | 74 | 0 | 0.0 | 0.0 | 0.00 | 0.00 | 0.00 | 88 | 1019.6 |
| 20260902080553 | 74 | 0 | 0.0 | 0.0 | 0.00 | 0.00 | 0.00 | 88 | 1019.6 |
| 20260902075553 | 74 | 0 | 0.0 | 0.0 | 0.00 | 0.00 | 0.00 | 87 | 1019.6 |
| 20260902075053 | 74 | 0 | 0.0 | 0.0 | 0.00 | 0.00 | 0.00 | 87 | 1019.5 |
| 20260902074612 | 75 | 0 | 0.0 | 0.0 | 0.00 | 0.00 | 0.00 | 87 | 1019.5 |
| 20260902074053 | 75 | 0 | 0.0 | 0.0 | 0.00 | 0.00 | 0.00 | 87 | 1019.5 |
| 20260902073553 | 75 | 0 | 0.0 | 0.0 | 0.00 | 0.00 | 0.00 | 87 | 1019.6 |
| 20260902073103 | 75 | 0 | 0.0 | 0.0 | 0.00 | 0.00 | 0.00 | 87 | 1019.6 |
| 20260902072552 | 75 | 0 | 0.0 | 0.0 | 0.00 | 0.00 | 0.00 | 87 | 1019.6 |
| 20260902072053 | 75 | 0 | 0.0 | 0.9 | 0.00 | 0.00 | 0.00 | 87 | 1019.6 |
| 20260902071610 | 75 | 0 | 0.0 | 0.9 | 0.00 | 0.00 | 0.00 | 87 | 1019.8 |
| 20260902071053 | 75 | 0 | 0.0 | 0.0 | 0.00 | 0.00 | 0.00 | 86 | 1019.9 |
| 20260902070553 | 75 | 0 | 0.0 | 0.0 | 0.00 | 0.00 | 0.00 | 86 | 1019.8 |
| 20260902070103 | 75 | 0 | 0.0 | 0.0 | 0.00 | 0.00 | 0.00 | 87 | 1019.8 |
| 20260902065555 | 75 | 0 | 0.0 | 0.0 | 0.00 | 0.00 | 0.00 | 86 | 1019.8 |
| 20260902065053 | 75 | 0 | 0.0 | 0.0 | 0.00 | 0.00 | 0.00 | 86 | 1019.8 |
| 20260902064604 | 75 | 0 | 0.0 | 0.0 | 0.00 | 0.00 | 0.00 | 86 | 1019.8 |
| 20260902064053 | 75 | 0 | 0.0 | 0.0 | 0.00 | 0.00 | 0.00 | 86 | 1019.8 |
| 20260902063553 | 75 | 0 | 0.0 | 0.0 | 0.00 | 0.00 | 0.00 | 86 | 1019.8 |
| 20260902063101 | 75 | 0 | 0.0 | 0.0 | 0.00 | 0.00 | 0.00 | 86 | 1019.9 |
| 20260902062553 | 76 | 0 | 0.0 | 0.9 | 0.00 | 0.00 | 0.00 | 85 | 1019.8 |
| 20260902062055 | 76 | 0 | 0.0 | 0.9 | 0.00 | 0.00 | 0.00 | 85 | 1019.7 |
| 20260902061056 | 76 | 0 | 0.0 | 0.0 | 0.00 | 0.00 | 0.00 | 85 | 1019.8 |
| 20260902060554 | 76 | 0 | 0.0 | 0.0 | 0.00 | 0.00 | 0.00 | 85 | 1019.9 |
| 20260902060110 | 76 | 0 | 0.0 | 0.0 | 0.00 | 0.00 | 0.00 | 85 | 1019.9 |
| 20260902055553 | 76 | 0 | 0.0 | 0.0 | 0.00 | 0.00 | 0.00 | 84 | 1019.8 |
| 20260902055053 | 76 | 0 | 0.0 | 0.0 | 0.00 | 0.00 | 0.00 | 85 | 1019.8 |
| 20260902054613 | 76 | 0 | 0.0 | 0.0 | 0.00 | 0.00 | 0.00 | 85 | 1019.9 |
| 20260902054052 | 76 | 0 | 0.0 | 0.0 | 0.00 | 0.00 | 0.00 | 84 | 1019.9 |
| 20260902053553 | 76 | 0 | 0.0 | 0.0 | 0.00 | 0.00 | 0.00 | 84 | 1019.9 |
| 20260902053107 | 76 | 0 | 0.0 | 0.0 | 0.00 | 0.00 | 0.00 | 84 | 1020.0 |
| 20260902052553 | 77 | 0 | 0.0 | 0.0 | 0.00 | 0.00 | 0.00 | 84 | 1019.9 |
| 20260902052052 | 77 | 0 | 0.0 | 0.0 | 0.00 | 0.00 | 0.00 | 84 | 1019.9 |
| 20260902051601 | 77 | 0 | 0.0 | 0.0 | 0.00 | 0.00 | 0.00 | 84 | 1019.9 |
| 20260902051053 | 77 | 0 | 0.0 | 0.0 | 0.00 | 0.00 | 0.00 | 84 | 1019.9 |
| 20260902050553 | 77 | 0 | 0.0 | 0.0 | 0.00 | 0.00 | 0.00 | 83 | 1019.9 |
| 20260902050107 | 77 | 0 | 0.0 | 0.0 | 0.00 | 0.00 | 0.00 | 83 | 1019.9 |
| 20260902045553 | 77 | 0 | 0.0 | 0.0 | 0.00 | 0.00 | 0.00 | 83 | 1019.9 |
| 20260902045053 | 77 | 0 | 0.0 | 0.0 | 0.00 | 0.00 | 0.00 | 83 | 1019.8 |
| 20260902044602 | 78 | 0 | 0.0 | 0.0 | 0.00 | 0.00 | 0.00 | 83 | 1019.8 |
| 20260902044053 | 78 | 0 | 0.0 | 0.0 | 0.00 | 0.00 | 0.00 | 82 | 1019.9 |
| 20260902043552 | 78 | 0 | 0.0 | 0.0 | 0.00 | 0.00 | 0.00 | 82 | 1019.9 |
| 20260902043109 | 78 | 0 | 0.0 | 0.0 | 0.00 | 0.00 | 0.00 | 82 | 1019.8 |
| 20260902042552 | 78 | 0 | 0.0 | 0.0 | 0.00 | 0.00 | 0.00 | 82 | 1019.9 |
| 20260902042053 | 78 | 0 | 0.0 | 0.0 | 0.00 | 0.00 | 0.00 | 82 | 1019.9 |
| 20260902041604 | 78 | 0 | 0.0 | 0.0 | 0.00 | 0.00 | 0.00 | 81 | 1019.8 |
| 20260902041052 | 78 | 0 | 0.0 | 0.0 | 0.00 | 0.00 | 0.00 | 81 | 1019.8 |
| 20260902040553 | 78 | 0 | 0.0 | 0.0 | 0.00 | 0.00 | 0.00 | 81 | 1019.9 |
| 20260902040109 | 79 | 0 | 0.0 | 0.0 | 0.00 | 0.00 | 0.00 | 80 | 1020.0 |
| 20260902035552 | 79 | 0 | 0.0 | 0.0 | 0.00 | 0.00 | 0.00 | 80 | 1019.9 |
| 20260902035053 | 79 | 0 | 0.0 | 0.0 | 0.00 | 0.00 | 0.00 | 80 | 1019.9 |
| 20260902034601 | 79 | 0 | 0.0 | 0.0 | 0.00 | 0.00 | 0.00 | 79 | 1019.8 |
| 20260902034053 | 79 | 0 | 0.0 | 0.0 | 0.00 | 0.00 | 0.00 | 79 | 1020.0 |
| 20260902033552 | 79 | 0 | 0.0 | 0.0 | 0.00 | 0.00 | 0.00 | 79 | 1019.8 |
| 20260902033101 | 79 | 0 | 0.0 | 0.0 | 0.00 | 0.00 | 0.00 | 79 | 1019.9 |
| 20260902032553 | 79 | 0 | 0.0 | 0.0 | 0.00 | 0.00 | 0.00 | 79 | 1020.1 |
| 20260902032052 | 80 | 0 | 0.0 | 0.0 | 0.00 | 0.00 | 0.00 | 79 | 1020.0 |
| 20260902031559 | 80 | 0 | 0.0 | 0.0 | 0.00 | 0.00 | 0.00 | 79 | 1020.0 |
| 20260902031053 | 80 | 0 | 0.0 | 0.0 | 0.00 | 0.00 | 0.00 | 78 | 1020.0 |
| 20260902030554 | 80 | 0 | 0.0 | 0.0 | 0.00 | 0.00 | 0.00 | 78 | 1020.0 |
| 20260902025553 | 81 | 0 | 0.0 | 0.0 | 0.00 | 0.00 | 0.00 | 78 | 1019.9 |
| 20260902025054 | 81 | 0 | 0.0 | 0.0 | 0.00 | 0.00 | 0.00 | 78 | 1019.9 |
| 20260902024558 | 81 | 0 | 0.0 | 0.0 | 0.00 | 0.00 | 0.00 | 78 | 1020.0 |
| 20260902024053 | 81 | 0 | 0.0 | 0.0 | 0.00 | 0.00 | 0.00 | 77 | 1019.9 |
| 20260902023552 | 81 | 0 | 0.0 | 0.0 | 0.00 | 0.00 | 0.00 | 77 | 1019.8 |
| 20260902023109 | 82 | 0 | 0.0 | 0.0 | 0.00 | 0.00 | 0.00 | 76 | 1019.8 |
| 20260902022553 | 82 | 0 | 0.0 | 0.0 | 0.00 | 0.00 | 0.00 | 76 | 1019.9 |
| 20260902022053 | 82 | 0 | 0.0 | 0.0 | 0.00 | 0.00 | 0.00 | 76 | 1019.8 |
| 20260902021603 | 82 | 0 | 0.0 | 0.0 | 0.00 | 0.00 | 0.00 | 76 | 1019.7 |
| 20260902021052 | 82 | 0 | 0.0 | 0.0 | 0.00 | 0.00 | 0.00 | 75 | 1019.7 |
| 20260902020553 | 82 | 0 | 0.0 | 0.0 | 0.00 | 0.00 | 0.00 | 75 | 1019.7 |
| 20260902020100 | 82 | 0 | 0.0 | 0.0 | 0.00 | 0.00 | 0.00 | 75 | 1019.7 |
| 20260902015553 | 83 | 0 | 0.0 | 0.0 | 0.00 | 0.00 | 0.00 | 74 | 1019.7 |
| 20260902015052 | 83 | 0 | 0.0 | 0.0 | 0.00 | 0.00 | 0.00 | 74 | 1019.6 |
| 20260902014603 | 83 | 0 | 0.0 | 0.0 | 0.00 | 0.00 | 0.00 | 73 | 1019.6 |
| 20260902014053 | 83 | 0 | 0.0 | 0.0 | 0.00 | 0.00 | 0.00 | 73 | 1019.5 |
| 20260902013556 | 83 | 0 | 0.0 | 0.0 | 0.00 | 0.00 | 0.00 | 72 | 1019.5 |
| 20260902013103 | 84 | 0 | 0.0 | 0.0 | 0.00 | 0.00 | 0.00 | 72 | 1019.3 |
| 20260902012552 | 84 | 0 | 0.0 | 0.0 | 0.00 | 0.00 | 0.00 | 72 | 1019.2 |
| 20260902012053 | 84 | 0 | 0.0 | 0.0 | 0.00 | 0.00 | 0.00 | 72 | 1019.3 |
| 20260902011608 | 84 | 0 | 0.0 | 0.0 | 0.00 | 0.00 | 0.00 | 71 | 1019.3 |
| 20260902011053 | 85 | 0 | 0.0 | 0.0 | 0.00 | 0.00 | 0.00 | 70 | 1019.3 |
| 20260902010553 | 85 | 0 | 0.0 | 0.0 | 0.00 | 0.00 | 0.00 | 69 | 1019.3 |
| 20260902010117 | 85 | 0 | 0.0 | 0.0 | 0.00 | 0.00 | 0.00 | 69 | 1019.2 |
| 20260902005552 | 85 | 0 | 0.0 | 0.0 | 0.00 | 0.00 | 0.00 | 69 | 1019.1 |
| 20260902005054 | 86 | 0 | 0.0 | 0.0 | 0.00 | 0.00 | 0.00 | 68 | 1019.1 |
| 20260902004607 | 86 | 0 | 0.0 | 0.0 | 0.00 | 0.00 | 0.00 | 68 | 1019.1 |
| 20260902004053 | 86 | 0 | 0.0 | 0.0 | 0.00 | 0.00 | 0.00 | 67 | 1019.2 |
| 20260902003553 | 87 | 0 | 0.0 | 0.0 | 0.00 | 0.00 | 0.00 | 67 | 1019.1 |
| 20260902003105 | 87 | 0 | 0.0 | 0.0 | 0.00 | 0.00 | 0.00 | 66 | 1019.0 |
| 20260902002553 | 87 | 0 | 0.0 | 0.0 | 0.00 | 0.00 | 0.00 | 66 | 1019.1 |
| 20260902002053 | 88 | 0 | 0.0 | 0.0 | 0.00 | 0.00 | 0.00 | 65 | 1019.1 |
| 20260902001622 | 88 | 0 | 0.0 | 0.0 | 0.00 | 0.00 | 0.00 | 64 | 1019.1 |
| 20260902001055 | 89 | 0 | 0.0 | 0.0 | 0.00 | 0.00 | 0.00 | 63 | 1018.9 |
| 20260902000552 | 89 | 0 | 0.0 | 0.0 | 0.00 | 0.00 | 0.00 | 62 | 1019.1 |
| 20260902000107 | 90 | 0 | 0.0 | 0.0 | 0.00 | 0.00 | 0.00 | 61 | 1019.0 |
| 20260901235553 | 90 | 0 | 0.0 | 0.0 | 0.00 | 0.00 | 0.00 | 60 | 1019.1 |
| 20260901235053 | 91 | 0 | 0.0 | 0.0 | 0.00 | 0.00 | 0.00 | 59 | 1019.1 |
| 20260901234604 | 91 | 0 | 0.0 | 0.9 | 0.00 | 0.00 | 0.00 | 57 | 1019.1 |
| 20260901234053 | 91 | 0 | 0.0 | 1.7 | 0.00 | 0.00 | 0.00 | 56 | 1019.1 |
| 20260901233553 | 92 | 0 | 0.0 | 1.7 | 0.00 | 0.00 | 0.00 | 56 | 1019.2 |
| 20260901233102 | 92 | 0 | 0.0 | 1.7 | 0.00 | 0.00 | 0.00 | 55 | 1019.2 |
| 20260901232554 | 92 | 0 | 0.0 | 4.3 | 0.00 | 0.00 | 0.00 | 54 | 1019.3 |
| 20260901232054 | 92 | 0 | 0.0 | 4.3 | 0.00 | 0.00 | 0.00 | 54 | 1019.2 |
| 20260901231607 | 92 | 360 | 2.6 | 4.3 | 0.00 | 0.00 | 0.00 | 53 | 1019.2 |
| 20260901231052 | 93 | 360 | 0.9 | 5.2 | 0.00 | 0.00 | 0.00 | 52 | 1019.2 |
| 20260901230553 | 93 | 360 | 0.0 | 5.2 | 0.00 | 0.00 | 0.00 | 52 | 1019.2 |
| 20260901230059 | 93 | 360 | 1.7 | 5.2 | 0.00 | 0.00 | 0.00 | 52 | 1019.2 |
| 20260901225553 | 93 | 360 | 0.9 | 4.3 | 0.00 | 0.00 | 0.00 | 52 | 1019.1 |
| 20260901225052 | 93 | 360 | 0.9 | 7.0 | 0.00 | 0.00 | 0.00 | 52 | 1019.2 |
| 20260901224605 | 93 | 360 | 1.7 | 7.0 | 0.00 | 0.00 | 0.00 | 51 | 1019.2 |
| 20260901224052 | 93 | 360 | 0.9 | 5.2 | 0.00 | 0.00 | 0.00 | 52 | 1019.1 |
| 20260901223552 | 93 | 360 | 2.6 | 5.2 | 0.00 | 0.00 | 0.00 | 51 | 1019.0 |
| 20260901223102 | 94 | 0 | 0.9 | 3.5 | 0.00 | 0.00 | 0.00 | 51 | 1018.9 |
| 20260901222552 | 94 | 360 | 0.9 | 3.5 | 0.00 | 0.00 | 0.00 | 50 | 1019.0 |
| 20260901222056 | 94 | 0 | 0.9 | 4.3 | 0.00 | 0.00 | 0.00 | 50 | 1019.0 |
| 20260901221621 | 94 | 360 | 0.0 | 4.3 | 0.00 | 0.00 | 0.00 | 50 | 1019.1 |
| 20260901221053 | 94 | 360 | 1.7 | 4.3 | 0.00 | 0.00 | 0.00 | 50 | 1019.1 |
| 20260901220552 | 94 | 360 | 0.0 | 5.2 | 0.00 | 0.00 | 0.00 | 50 | 1018.8 |
| 20260901220122 | 94 | 0 | 0.0 | 5.2 | 0.00 | 0.00 | 0.00 | 49 | 1018.8 |
| 20260901215552 | 94 | 360 | 0.0 | 5.2 | 0.00 | 0.00 | 0.00 | 49 | 1018.8 |
| 20260901215052 | 94 | 0 | 2.6 | 5.2 | 0.00 | 0.00 | 0.00 | 49 | 1019.0 |
| 20260901214604 | 94 | 360 | 0.9 | 5.2 | 0.00 | 0.00 | 0.00 | 49 | 1019.0 |
| 20260901214053 | 94 | 360 | 0.9 | 5.2 | 0.00 | 0.00 | 0.00 | 49 | 1018.9 |
| 20260901213553 | 94 | 360 | 0.0 | 7.0 | 0.00 | 0.00 | 0.00 | 49 | 1019.0 |
| 20260901213107 | 94 | 0 | 0.9 | 7.0 | 0.00 | 0.00 | 0.00 | 49 | 1019.0 |
| 20260901212553 | 94 | 360 | 2.6 | 7.0 | 0.00 | 0.00 | 0.00 | 50 | 1019.1 |
| 20260901212056 | 94 | 0 | 0.0 | 3.5 | 0.00 | 0.00 | 0.00 | 50 | 1019.2 |
| 20260901211600 | 94 | 360 | 0.9 | 4.3 | 0.00 | 0.00 | 0.00 | 50 | 1019.2 |
| 20260901211052 | 93 | 0 | 0.9 | 5.2 | 0.00 | 0.00 | 0.00 | 50 | 1019.2 |
| 20260901210552 | 93 | 360 | 1.7 | 7.8 | 0.00 | 0.00 | 0.00 | 50 | 1019.2 |
| 20260901210106 | 93 | 360 | 2.6 | 7.8 | 0.00 | 0.00 | 0.00 | 51 | 1019.1 |
| 20260901205552 | 93 | 360 | 2.6 | 7.8 | 0.00 | 0.00 | 0.00 | 50 | 1019.2 |
| 20260901205056 | 93 | 360 | 1.7 | 7.0 | 0.00 | 0.00 | 0.00 | 51 | 1019.2 |
| 20260901204606 | 93 | 0 | 1.7 | 7.8 | 0.00 | 0.00 | 0.00 | 52 | 1019.3 |
| 20260901204058 | 93 | 360 | 2.6 | 7.8 | 0.00 | 0.00 | 0.00 | 52 | 1019.3 |
| 20260901203553 | 93 | 0 | 2.6 | 7.8 | 0.00 | 0.00 | 0.00 | 51 | 1019.3 |
| 20260901203103 | 93 | 0 | 3.5 | 7.8 | 0.00 | 0.00 | 0.00 | 50 | 1019.4 |
| 20260901202553 | 93 | 360 | 3.5 | 7.8 | 0.00 | 0.00 | 0.00 | 51 | 1019.5 |
| 20260901202052 | 93 | 360 | 0.9 | 4.3 | 0.00 | 0.00 | 0.00 | 52 | 1019.6 |
| 20260901201602 | 93 | 360 | 0.0 | 1.7 | 0.00 | 0.00 | 0.00 | 53 | 1019.6 |
| 20260901201052 | 93 | 0 | 0.0 | 3.5 | 0.00 | 0.00 | 0.00 | 51 | 1019.7 |
| 20260901200553 | 93 | 0 | 0.0 | 5.2 | 0.00 | 0.00 | 0.00 | 52 | 1019.8 |
| 20260901195553 | 92 | 360 | 2.6 | 5.2 | 0.00 | 0.00 | 0.00 | 52 | 1019.8 |
| 20260901195053 | 92 | 360 | 0.9 | 4.3 | 0.00 | 0.00 | 0.00 | 52 | 1019.8 |
| 20260901194601 | 92 | 0 | 1.7 | 7.8 | 0.00 | 0.00 | 0.00 | 51 | 1020.0 |
| 20260901194055 | 93 | 360 | 2.6 | 7.8 | 0.00 | 0.00 | 0.00 | 52 | 1020.0 |
| 20260901193553 | 92 | 360 | 1.7 | 7.0 | 0.00 | 0.00 | 0.00 | 53 | 1020.1 |
| 20260901193107 | 92 | 360 | 0.9 | 4.3 | 0.00 | 0.00 | 0.00 | 53 | 1020.1 |
| 20260901192556 | 92 | 360 | 0.9 | 4.3 | 0.00 | 0.00 | 0.00 | 53 | 1020.2 |
| 20260901192052 | 92 | 360 | 0.9 | 4.3 | 0.00 | 0.00 | 0.00 | 52 | 1020.3 |
| 20260901191619 | 92 | 0 | 1.7 | 5.2 | 0.00 | 0.00 | 0.00 | 52 | 1020.4 |
| 20260901191055 | 92 | 360 | 0.9 | 5.2 | 0.00 | 0.00 | 0.00 | 52 | 1020.3 |
| 20260901190554 | 93 | 360 | 0.0 | 3.5 | 0.00 | 0.00 | 0.00 | 53 | 1020.5 |
| 20260901190101 | 93 | 0 | 0.0 | 3.5 | 0.00 | 0.00 | 0.00 | 52 | 1020.4 |
| 20260901185553 | 93 | 0 | 0.9 | 7.8 | 0.00 | 0.00 | 0.00 | 51 | 1020.5 |
| 20260901185052 | 93 | 360 | 1.7 | 7.8 | 0.00 | 0.00 | 0.00 | 52 | 1020.4 |
| 20260901184602 | 93 | 360 | 2.6 | 7.8 | 0.00 | 0.00 | 0.00 | 52 | 1020.4 |
| 20260901184052 | 92 | 360 | 2.6 | 7.0 | 0.00 | 0.00 | 0.00 | 51 | 1020.5 |
| 20260901183552 | 92 | 360 | 1.7 | 5.2 | 0.00 | 0.00 | 0.00 | 50 | 1020.6 |
| 20260901183104 | 92 | 0 | 0.0 | 3.5 | 0.00 | 0.00 | 0.00 | 52 | 1020.6 |
| 20260901182554 | 92 | 360 | 0.0 | 2.6 | 0.00 | 0.00 | 0.00 | 52 | 1020.7 |
| 20260901182053 | 92 | 0 | 0.0 | 4.3 | 0.00 | 0.00 | 0.00 | 52 | 1020.8 |
| 20260901181610 | 92 | 0 | 0.9 | 7.0 | 0.00 | 0.00 | 0.00 | 50 | 1020.8 |
| 20260901181052 | 92 | 0 | 1.7 | 7.0 | 0.00 | 0.00 | 0.00 | 51 | 1020.9 |
| 20260901180553 | 92 | 360 | 0.9 | 7.0 | 0.00 | 0.00 | 0.00 | 51 | 1020.9 |
| 20260901175553 | 92 | 360 | 0.9 | 4.3 | 0.00 | 0.00 | 0.00 | 53 | 1020.9 |
| 20260901175052 | 92 | 0 | 0.9 | 4.3 | 0.00 | 0.00 | 0.00 | 54 | 1021.0 |
| 20260901174605 | 91 | 360 | 0.9 | 4.3 | 0.00 | 0.00 | 0.00 | 54 | 1021.0 |
| 20260901174052 | 91 | 360 | 0.9 | 4.3 | 0.00 | 0.00 | 0.00 | 53 | 1021.0 |
| 20260901173552 | 91 | 360 | 0.9 | 4.3 | 0.00 | 0.00 | 0.00 | 55 | 1021.1 |
| 20260901173106 | 91 | 360 | 0.9 | 4.3 | 0.00 | 0.00 | 0.00 | 55 | 1021.1 |
| 20260901172552 | 90 | 0 | 0.9 | 5.2 | 0.00 | 0.00 | 0.00 | 57 | 1021.3 |
| 20260901172054 | 90 | 360 | 1.7 | 5.2 | 0.00 | 0.00 | 0.00 | 59 | 1021.3 |
| 20260901171607 | 90 | 360 | 0.0 | 3.5 | 0.00 | 0.00 | 0.00 | 60 | 1021.4 |
| 20260901171052 | 90 | 0 | 0.9 | 3.5 | 0.00 | 0.00 | 0.00 | 59 | 1021.5 |
| 20260901170555 | 90 | 360 | 0.0 | 2.6 | 0.00 | 0.00 | 0.00 | 60 | 1021.5 |
| 20260901170109 | 90 | 0 | 0.9 | 2.6 | 0.00 | 0.00 | 0.00 | 59 | 1021.6 |
| 20260901165619 | 89 | 0 | 0.0 | 3.5 | 0.00 | 0.00 | 0.00 | 60 | 1021.7 |
| 20260901165052 | 89 | 0 | 0.0 | 4.3 | 0.00 | 0.00 | 0.00 | 59 | 1021.8 |
| 20260901164600 | 89 | 360 | 1.7 | 4.3 | 0.00 | 0.00 | 0.00 | 60 | 1021.9 |
| 20260901164054 | 89 | 0 | 0.9 | 3.5 | 0.00 | 0.00 | 0.00 | 61 | 1021.8 |
| 20260901163552 | 89 | 360 | 0.0 | 1.7 | 0.00 | 0.00 | 0.00 | 63 | 1021.9 |
| 20260901163112 | 88 | 0 | 0.0 | 3.5 | 0.00 | 0.00 | 0.00 | 62 | 1022.0 |
| 20260901162556 | 88 | 0 | 0.9 | 4.3 | 0.00 | 0.00 | 0.00 | 62 | 1022.0 |
| 20260901162053 | 88 | 0 | 1.7 | 4.3 | 0.00 | 0.00 | 0.00 | 63 | 1022.0 |
| 20260901161612 | 87 | 76 | 0.0 | 3.5 | 0.00 | 0.00 | 0.00 | 63 | 1022.1 |
| 20260901161052 | 87 | 0 | 0.0 | 3.5 | 0.00 | 0.00 | 0.00 | 64 | 1022.2 |
| 20260901160555 | 87 | 350 | 0.0 | 3.5 | 0.00 | 0.00 | 0.00 | 65 | 1022.2 |
| 20260901160110 | 87 | 304 | 0.9 | 3.5 | 0.00 | 0.00 | 0.00 | 65 | 1022.2 |
| 20260901155552 | 87 | 291 | 0.0 | 2.6 | 0.00 | 0.00 | 0.00 | 66 | 1022.2 |
| 20260901155057 | 87 | 0 | 0.0 | 2.6 | 0.00 | 0.00 | 0.00 | 66 | 1022.4 |
| 20260901154609 | 86 | 335 | 0.0 | 2.6 | 0.00 | 0.00 | 0.00 | 67 | 1022.4 |
| 20260901154052 | 86 | 0 | 0.0 | 1.7 | 0.00 | 0.00 | 0.00 | 67 | 1022.4 |
| 20260901153552 | 86 | 318 | 0.0 | 1.7 | 0.00 | 0.00 | 0.00 | 66 | 1022.5 |
| 20260901153105 | 86 | 0 | 0.0 | 2.6 | 0.00 | 0.00 | 0.00 | 68 | 1022.4 |
| 20260901152552 | 86 | 248 | 0.0 | 2.6 | 0.00 | 0.00 | 0.00 | 70 | 1022.4 |
| 20260901152052 | 86 | 0 | 0.0 | 2.6 | 0.00 | 0.00 | 0.00 | 70 | 1022.5 |
| 20260901151607 | 86 | 0 | 0.9 | 2.6 | 0.00 | 0.00 | 0.00 | 70 | 1022.6 |
| 20260901151057 | 86 | 0 | 0.0 | 1.7 | 0.00 | 0.00 | 0.00 | 70 | 1022.5 |